Location: Bottom School (historical)
(37.9078°N, 89.3593°W)
Time: 19:22:43
(UTC+00:00)

SL-4 R/B - Pass Details

Date: 02 July 2022
Orbit: 425 x 653 km, 51.6° (Epoch: 16 August)

Event Time Altitude Azimuth Distance (km) Brightness Sun altitude
Exits shadow 08:30:46 - 299° (WNW) 2,059 4.9 -19.7°
Reaches altitude 10° 08:32:28 10° 318° (NW) 1,655 4.6 -19.5°
Maximum altitude 08:34:18 13° 348° (NNW) 1,498 4.7 -19.3°
Drops below altitude 10° 08:36:13 10° 17° (NNE) 1,720 5.6 -19.1°
Sets 08:39:33 0° 46° (NE) 2,671 7.2 -18.7°
